Year,Month,Day,Hour,Minute,Value (Times are PST for temperature in C)
2017,09,03,00,00,18.60
2017,09,03,00,01,18.60
2017,09,03,00,02,18.60
2017,09,03,00,03,18.60
2017,09,03,00,04,18.60
2017,09,03,00,05,18.60
2017,09,03,00,06,18.50
2017,09,03,00,07,18.50
2017,09,03,00,08,18.40
2017,09,03,00,09,18.40
2017,09,03,00,10,18.40
2017,09,03,00,11,18.40
2017,09,03,00,12,18.30
2017,09,03,00,13,18.30
2017,09,03,00,14,18.30
2017,09,03,00,15,18.30
2017,09,03,00,16,18.30
2017,09,03,00,17,18.30
2017,09,03,00,18,18.30
2017,09,03,00,19,18.30
2017,09,03,00,20,18.20
2017,09,03,00,21,18.20
2017,09,03,00,22,18.20
2017,09,03,00,23,18.20
2017,09,03,00,24,18.20
2017,09,03,00,25,18.20
2017,09,03,00,26,18.20
2017,09,03,00,27,18.10
2017,09,03,00,28,18.10
2017,09,03,00,29,18.10
2017,09,03,00,30,18.10
2017,09,03,00,31,18.00
2017,09,03,00,32,18.00
2017,09,03,00,33,18.00
2017,09,03,00,34,17.90
2017,09,03,00,35,17.90
2017,09,03,00,36,17.90
2017,09,03,00,37,17.90
2017,09,03,00,38,17.80
2017,09,03,00,39,17.80
2017,09,03,00,40,17.80
2017,09,03,00,41,17.80
2017,09,03,00,42,17.80
2017,09,03,00,43,17.80
2017,09,03,00,44,17.70
2017,09,03,00,45,17.70
2017,09,03,00,46,17.70
2017,09,03,00,47,17.70
2017,09,03,00,48,17.70
2017,09,03,00,49,17.70
2017,09,03,00,50,17.70
2017,09,03,00,51,17.60
2017,09,03,00,52,17.60
2017,09,03,00,53,17.60
2017,09,03,00,54,17.60
2017,09,03,00,55,17.60
2017,09,03,00,56,17.60
2017,09,03,00,57,17.60
2017,09,03,00,58,17.50
2017,09,03,00,59,17.50
2017,09,03,01,00,17.50
2017,09,03,01,01,17.50
2017,09,03,01,02,17.40
2017,09,03,01,03,17.40
2017,09,03,01,04,17.40
2017,09,03,01,05,17.40
2017,09,03,01,06,17.40
2017,09,03,01,07,17.40
2017,09,03,01,08,17.30
2017,09,03,01,09,17.30
2017,09,03,01,10,17.30
2017,09,03,01,11,17.30
2017,09,03,01,12,17.30
2017,09,03,01,13,17.30
2017,09,03,01,14,17.30
2017,09,03,01,15,17.20
2017,09,03,01,16,17.20
2017,09,03,01,17,17.20
2017,09,03,01,18,17.20
2017,09,03,01,19,17.20
2017,09,03,01,20,17.20
2017,09,03,01,21,17.10
2017,09,03,01,22,17.10
2017,09,03,01,23,17.10
2017,09,03,01,24,17.10
2017,09,03,01,25,17.10
2017,09,03,01,26,17.10
2017,09,03,01,27,17.10
2017,09,03,01,28,17.10
2017,09,03,01,29,17.00
2017,09,03,01,30,17.00
2017,09,03,01,31,17.00
2017,09,03,01,32,17.00
2017,09,03,01,33,17.00
2017,09,03,01,34,17.00
2017,09,03,01,35,17.00
2017,09,03,01,36,17.00
2017,09,03,01,37,17.00
2017,09,03,01,38,17.00
2017,09,03,01,39,16.90
2017,09,03,01,40,16.90
2017,09,03,01,41,16.90
2017,09,03,01,42,16.90
2017,09,03,01,43,16.90
2017,09,03,01,44,16.90
2017,09,03,01,45,16.90
2017,09,03,01,46,16.90
2017,09,03,01,47,16.90
2017,09,03,01,48,16.90
2017,09,03,01,49,16.90
2017,09,03,01,50,16.80
2017,09,03,01,51,16.80
2017,09,03,01,52,16.80
2017,09,03,01,53,16.80
2017,09,03,01,54,16.80
2017,09,03,01,55,16.80
2017,09,03,01,56,16.80
2017,09,03,01,57,16.80
2017,09,03,01,58,16.70
2017,09,03,01,59,16.70
2017,09,03,02,00,16.70
2017,09,03,02,01,16.70
2017,09,03,02,02,16.70
2017,09,03,02,03,16.70
2017,09,03,02,04,16.70
2017,09,03,02,05,16.70
2017,09,03,02,06,16.70
2017,09,03,02,07,16.70
2017,09,03,02,08,16.70
2017,09,03,02,09,16.70
2017,09,03,02,10,16.70
2017,09,03,02,11,16.70
2017,09,03,02,12,16.70
2017,09,03,02,13,16.70
2017,09,03,02,14,16.70
2017,09,03,02,15,16.70
2017,09,03,02,16,16.70
2017,09,03,02,17,16.70
2017,09,03,02,18,16.70
2017,09,03,02,19,16.70
2017,09,03,02,20,16.70
2017,09,03,02,21,16.70
2017,09,03,02,22,16.70
2017,09,03,02,23,16.70
2017,09,03,02,24,16.70
2017,09,03,02,25,16.70
2017,09,03,02,26,16.70
2017,09,03,02,27,16.70
2017,09,03,02,28,16.70
2017,09,03,02,29,16.70
2017,09,03,02,30,16.70
2017,09,03,02,31,16.70
2017,09,03,02,32,16.70
2017,09,03,02,33,16.70
2017,09,03,02,34,16.70
2017,09,03,02,35,16.70
2017,09,03,02,36,16.70
2017,09,03,02,37,16.70
2017,09,03,02,38,16.70
2017,09,03,02,39,16.70
2017,09,03,02,40,16.70
2017,09,03,02,41,16.70
2017,09,03,02,42,16.70
2017,09,03,02,43,16.70
2017,09,03,02,44,16.70
2017,09,03,02,45,16.60
2017,09,03,02,46,16.60
2017,09,03,02,47,16.60
2017,09,03,02,48,16.60
2017,09,03,02,49,16.60
2017,09,03,02,50,16.60
2017,09,03,02,51,16.60
2017,09,03,02,52,16.60
2017,09,03,02,53,16.60
2017,09,03,02,54,16.60
2017,09,03,02,55,16.60
2017,09,03,02,56,16.60
2017,09,03,02,57,16.60
2017,09,03,02,58,16.60
2017,09,03,02,59,16.60
2017,09,03,03,00,16.60
2017,09,03,03,01,16.60
2017,09,03,03,02,16.60
2017,09,03,03,03,16.50
2017,09,03,03,04,16.50
2017,09,03,03,05,16.50
2017,09,03,03,06,16.50
2017,09,03,03,07,16.50
2017,09,03,03,08,16.50
2017,09,03,03,09,16.50
2017,09,03,03,10,16.50
2017,09,03,03,11,16.50
2017,09,03,03,12,16.50
2017,09,03,03,13,16.50
2017,09,03,03,14,16.40
2017,09,03,03,15,16.40
2017,09,03,03,16,16.40
2017,09,03,03,17,16.40
2017,09,03,03,18,16.40
2017,09,03,03,19,16.40
2017,09,03,03,20,16.40
2017,09,03,03,21,16.40
2017,09,03,03,22,16.30
2017,09,03,03,23,16.30
2017,09,03,03,24,16.30
2017,09,03,03,25,16.30
2017,09,03,03,26,16.30
2017,09,03,03,27,16.30
2017,09,03,03,28,16.30
2017,09,03,03,29,16.30
2017,09,03,03,30,16.30
2017,09,03,03,31,16.30
2017,09,03,03,32,16.30
2017,09,03,03,33,16.20
2017,09,03,03,34,16.20
2017,09,03,03,35,16.20
2017,09,03,03,36,16.20
2017,09,03,03,37,16.20
2017,09,03,03,38,16.20
2017,09,03,03,39,16.20
2017,09,03,03,40,16.20
2017,09,03,03,41,16.20
2017,09,03,03,42,16.20
2017,09,03,03,43,16.20
2017,09,03,03,44,16.20
2017,09,03,03,45,16.20
2017,09,03,03,46,16.10
2017,09,03,03,47,16.10
2017,09,03,03,48,16.10
2017,09,03,03,49,16.10
2017,09,03,03,50,16.10
2017,09,03,03,51,16.10
2017,09,03,03,52,16.10
2017,09,03,03,53,16.10
2017,09,03,03,54,16.10
2017,09,03,03,55,16.00
2017,09,03,03,56,16.00
2017,09,03,03,57,16.00
2017,09,03,03,58,16.00
2017,09,03,03,59,16.00
2017,09,03,04,00,16.00
2017,09,03,04,01,16.00
2017,09,03,04,02,16.00
2017,09,03,04,03,16.00
2017,09,03,04,04,16.00
2017,09,03,04,05,15.90
2017,09,03,04,06,15.90
2017,09,03,04,07,15.90
2017,09,03,04,08,15.90
2017,09,03,04,09,15.90
2017,09,03,04,10,15.90
2017,09,03,04,11,15.90
2017,09,03,04,12,15.90
2017,09,03,04,13,15.90
2017,09,03,04,14,15.90
2017,09,03,04,15,15.90
2017,09,03,04,16,15.90
2017,09,03,04,17,15.90
2017,09,03,04,18,15.90
2017,09,03,04,19,15.90
2017,09,03,04,20,15.90
2017,09,03,04,21,15.90
2017,09,03,04,22,15.90
2017,09,03,04,23,15.90
2017,09,03,04,24,15.90
2017,09,03,04,25,16.00
2017,09,03,04,26,15.90
2017,09,03,04,27,15.90
2017,09,03,04,28,16.00
2017,09,03,04,29,16.00
2017,09,03,04,30,16.00
2017,09,03,04,31,16.00
2017,09,03,04,32,16.00
2017,09,03,04,33,16.00
2017,09,03,04,34,16.00
2017,09,03,04,35,16.00
2017,09,03,04,36,16.00
2017,09,03,04,37,16.10
2017,09,03,04,38,16.10
2017,09,03,04,39,16.10
2017,09,03,04,40,16.10
2017,09,03,04,41,16.10
2017,09,03,04,42,16.10
2017,09,03,04,43,16.10
2017,09,03,04,44,16.10
2017,09,03,04,45,16.10
2017,09,03,04,46,16.10
2017,09,03,04,47,16.00
2017,09,03,04,48,16.00
2017,09,03,04,49,16.00
2017,09,03,04,50,16.00
2017,09,03,04,51,16.00
2017,09,03,04,52,16.00
2017,09,03,04,53,16.00
2017,09,03,04,54,16.00
2017,09,03,04,55,16.00
2017,09,03,04,56,16.00
2017,09,03,04,57,15.90
2017,09,03,04,58,15.90
2017,09,03,04,59,15.90
2017,09,03,05,00,15.90
2017,09,03,05,01,15.90
2017,09,03,05,02,15.90
2017,09,03,05,03,15.90
2017,09,03,05,04,15.80
2017,09,03,05,05,15.80
2017,09,03,05,06,15.80
2017,09,03,05,07,15.80
2017,09,03,05,08,15.80
2017,09,03,05,09,15.80
2017,09,03,05,10,15.80
2017,09,03,05,11,15.70
2017,09,03,05,12,15.70
2017,09,03,05,13,15.70
2017,09,03,05,14,15.70
2017,09,03,05,15,15.70
2017,09,03,05,16,15.60
2017,09,03,05,17,15.60
2017,09,03,05,18,15.60
2017,09,03,05,19,15.60
2017,09,03,05,20,15.60
2017,09,03,05,21,15.60
2017,09,03,05,22,15.60
2017,09,03,05,23,15.50
2017,09,03,05,24,15.50
2017,09,03,05,25,15.50
2017,09,03,05,26,15.50
2017,09,03,05,27,15.40
2017,09,03,05,28,15.40
2017,09,03,05,29,15.40
2017,09,03,05,30,15.40
2017,09,03,05,31,15.40
2017,09,03,05,32,15.40
2017,09,03,05,33,15.40
2017,09,03,05,34,15.40
2017,09,03,05,35,15.30
2017,09,03,05,36,15.30
2017,09,03,05,37,15.30
2017,09,03,05,38,15.30
2017,09,03,05,39,15.30
2017,09,03,05,40,15.30
2017,09,03,05,41,15.30
2017,09,03,05,42,15.20
2017,09,03,05,43,15.20
2017,09,03,05,44,15.20
2017,09,03,05,45,15.20
2017,09,03,05,46,15.20
2017,09,03,05,47,15.20
2017,09,03,05,48,15.20
2017,09,03,05,49,15.20
2017,09,03,05,50,15.20
2017,09,03,05,51,15.20
2017,09,03,05,52,15.20
2017,09,03,05,53,15.20
2017,09,03,05,54,15.20
2017,09,03,05,55,15.20
2017,09,03,05,56,15.20
2017,09,03,05,57,15.20
2017,09,03,05,58,15.20
2017,09,03,05,59,15.20
2017,09,03,06,00,15.20
2017,09,03,06,01,15.20
2017,09,03,06,02,15.20
2017,09,03,06,03,15.10
2017,09,03,06,04,15.10
2017,09,03,06,05,15.10
2017,09,03,06,06,15.10
2017,09,03,06,07,15.10
2017,09,03,06,08,15.10
2017,09,03,06,09,15.10
2017,09,03,06,10,15.20
2017,09,03,06,11,15.20
2017,09,03,06,12,15.20
2017,09,03,06,13,15.20
2017,09,03,06,14,15.20
2017,09,03,06,15,15.20
2017,09,03,06,16,15.20
2017,09,03,06,17,15.10
2017,09,03,06,18,15.10
2017,09,03,06,19,15.10
2017,09,03,06,20,15.10
2017,09,03,06,21,15.10
2017,09,03,06,22,15.10
2017,09,03,06,23,15.10
2017,09,03,06,24,15.10
2017,09,03,06,25,15.10
2017,09,03,06,26,15.10
2017,09,03,06,27,15.10
2017,09,03,06,28,15.10
2017,09,03,06,29,15.10
2017,09,03,06,30,15.10
2017,09,03,06,31,15.10
2017,09,03,06,32,15.10
2017,09,03,06,33,15.10
2017,09,03,06,34,15.10
2017,09,03,06,35,15.10
2017,09,03,06,36,15.10
2017,09,03,06,37,15.10
2017,09,03,06,38,15.10
2017,09,03,06,39,15.10
2017,09,03,06,40,15.10
2017,09,03,06,41,15.10
2017,09,03,06,42,15.10
2017,09,03,06,43,15.10
2017,09,03,06,44,15.10
2017,09,03,06,45,15.10
2017,09,03,06,46,15.10
2017,09,03,06,47,15.10
2017,09,03,06,48,15.10
2017,09,03,06,49,15.10
2017,09,03,06,50,15.10
2017,09,03,06,51,15.10
2017,09,03,06,52,15.10
2017,09,03,06,53,15.10
2017,09,03,06,54,15.10
2017,09,03,06,55,15.10
2017,09,03,06,56,15.10
2017,09,03,06,57,15.10
2017,09,03,06,58,15.00
2017,09,03,06,59,15.00
2017,09,03,07,00,15.00
2017,09,03,07,01,15.00
2017,09,03,07,02,15.00
2017,09,03,07,03,15.00
2017,09,03,07,04,15.00
2017,09,03,07,05,15.00
2017,09,03,07,06,15.00
2017,09,03,07,07,15.00
2017,09,03,07,08,15.00
2017,09,03,07,09,15.00
2017,09,03,07,10,15.00
2017,09,03,07,11,15.00
2017,09,03,07,12,15.00
2017,09,03,07,13,15.00
2017,09,03,07,14,15.10
2017,09,03,07,15,15.10
2017,09,03,07,16,15.00
2017,09,03,07,17,15.10
2017,09,03,07,18,15.10
2017,09,03,07,19,15.10
2017,09,03,07,20,15.10
2017,09,03,07,21,15.10
2017,09,03,07,22,15.10
2017,09,03,07,23,15.10
2017,09,03,07,24,15.10
2017,09,03,07,25,15.10
2017,09,03,07,26,15.10
2017,09,03,07,27,15.20
2017,09,03,07,28,15.20
2017,09,03,07,29,15.20
2017,09,03,07,30,15.20
2017,09,03,07,31,15.20
2017,09,03,07,32,15.30
2017,09,03,07,33,15.30
2017,09,03,07,34,15.30
2017,09,03,07,35,15.30
2017,09,03,07,36,15.40
2017,09,03,07,37,15.40
2017,09,03,07,38,15.50
2017,09,03,07,39,15.60
2017,09,03,07,40,15.60
2017,09,03,07,41,15.70
2017,09,03,07,42,15.70
2017,09,03,07,43,15.80
2017,09,03,07,44,15.80
2017,09,03,07,45,15.90
2017,09,03,07,46,15.90
2017,09,03,07,47,16.00
2017,09,03,07,48,16.00
2017,09,03,07,49,16.10
2017,09,03,07,50,16.10
2017,09,03,07,51,16.20
2017,09,03,07,52,16.20
2017,09,03,07,53,16.20
2017,09,03,07,54,16.30
2017,09,03,07,55,16.30
2017,09,03,07,56,16.40
2017,09,03,07,57,16.40
2017,09,03,07,58,16.50
2017,09,03,07,59,16.50
2017,09,03,08,00,16.60
2017,09,03,08,01,16.70
2017,09,03,08,02,16.70
2017,09,03,08,03,16.80
2017,09,03,08,04,16.90
2017,09,03,08,05,16.90
2017,09,03,08,06,17.00
2017,09,03,08,07,17.10
2017,09,03,08,08,17.10
2017,09,03,08,09,17.20
2017,09,03,08,10,17.30
2017,09,03,08,11,17.40
2017,09,03,08,12,17.50
2017,09,03,08,13,17.70
2017,09,03,08,14,17.80
2017,09,03,08,15,18.00
2017,09,03,08,16,18.10
2017,09,03,08,17,18.30
2017,09,03,08,18,18.40
2017,09,03,08,19,18.60
2017,09,03,08,20,18.80
2017,09,03,08,21,18.90
2017,09,03,08,22,19.10
2017,09,03,08,23,19.30
2017,09,03,08,24,19.50
2017,09,03,08,25,19.60
2017,09,03,08,26,19.80
2017,09,03,08,27,19.90
2017,09,03,08,28,20.10
2017,09,03,08,29,20.20
2017,09,03,08,30,20.30
2017,09,03,08,31,20.40
2017,09,03,08,32,20.50
2017,09,03,08,33,20.50
2017,09,03,08,34,20.60
2017,09,03,08,35,20.70
2017,09,03,08,36,20.70
2017,09,03,08,37,20.70
2017,09,03,08,38,20.80
2017,09,03,08,39,20.80
2017,09,03,08,40,20.80
2017,09,03,08,41,20.90
2017,09,03,08,42,20.90
2017,09,03,08,43,20.90
2017,09,03,08,44,20.90
2017,09,03,08,45,20.90
2017,09,03,08,46,21.00
2017,09,03,08,47,21.00
2017,09,03,08,48,21.10
2017,09,03,08,49,21.10
2017,09,03,08,50,21.10
2017,09,03,08,51,21.10
2017,09,03,08,52,21.10
2017,09,03,08,53,21.10
2017,09,03,08,54,21.10
2017,09,03,08,55,21.10
2017,09,03,08,56,21.10
2017,09,03,08,57,21.10
2017,09,03,08,58,21.20
2017,09,03,08,59,21.20
2017,09,03,09,00,21.20
2017,09,03,09,01,21.20
2017,09,03,09,02,21.30
2017,09,03,09,03,21.30
2017,09,03,09,04,21.30
2017,09,03,09,05,21.30
2017,09,03,09,06,21.40
2017,09,03,09,07,21.40
2017,09,03,09,08,21.40
2017,09,03,09,09,21.50
2017,09,03,09,10,21.50
2017,09,03,09,11,21.60
2017,09,03,09,12,21.60
2017,09,03,09,13,21.60
2017,09,03,09,14,21.60
2017,09,03,09,15,21.70
2017,09,03,09,16,21.70
2017,09,03,09,17,21.70
2017,09,03,09,18,21.80
2017,09,03,09,19,21.80
2017,09,03,09,20,21.80
2017,09,03,09,21,21.80
2017,09,03,09,22,21.80
2017,09,03,09,23,21.80
2017,09,03,09,24,21.90
2017,09,03,09,25,21.90
2017,09,03,09,26,21.90
2017,09,03,09,27,21.90
2017,09,03,09,28,21.90
2017,09,03,09,29,21.90
2017,09,03,09,30,22.00
2017,09,03,09,31,22.00
2017,09,03,09,32,22.00
2017,09,03,09,33,21.90
2017,09,03,09,34,21.90
2017,09,03,09,35,21.90
2017,09,03,09,36,21.90
2017,09,03,09,37,22.00
2017,09,03,09,38,22.00
2017,09,03,09,39,22.00
2017,09,03,09,40,22.00
2017,09,03,09,41,22.10
2017,09,03,09,42,22.10
2017,09,03,09,43,22.10
2017,09,03,09,44,22.10
2017,09,03,09,45,22.10
2017,09,03,09,46,22.20
2017,09,03,09,47,22.20
2017,09,03,09,48,22.20
2017,09,03,09,49,22.30
2017,09,03,09,50,22.30
2017,09,03,09,51,22.30
2017,09,03,09,52,22.40
2017,09,03,09,53,22.40
2017,09,03,09,54,22.50
2017,09,03,09,55,22.50
2017,09,03,09,56,22.50
2017,09,03,09,57,22.50
2017,09,03,09,58,22.60
2017,09,03,09,59,22.50
2017,09,03,10,00,22.50
2017,09,03,10,01,22.50
2017,09,03,10,02,22.50
2017,09,03,10,03,22.50
2017,09,03,10,04,22.50
2017,09,03,10,05,22.50
2017,09,03,10,06,22.50
2017,09,03,10,07,22.50
2017,09,03,10,08,22.50
2017,09,03,10,09,22.50
2017,09,03,10,10,22.60
2017,09,03,10,11,22.60
2017,09,03,10,12,22.60
2017,09,03,10,13,22.60
2017,09,03,10,14,22.60
2017,09,03,10,15,22.70
2017,09,03,10,16,22.70
2017,09,03,10,17,22.70
2017,09,03,10,18,22.80
2017,09,03,10,19,22.80
2017,09,03,10,20,22.80
2017,09,03,10,21,22.80
2017,09,03,10,22,22.80
2017,09,03,10,23,22.80
2017,09,03,10,24,22.70
2017,09,03,10,25,22.70
2017,09,03,10,26,22.70
2017,09,03,10,27,22.70
2017,09,03,10,28,22.60
2017,09,03,10,29,22.60
2017,09,03,10,30,22.60
2017,09,03,10,31,22.60
2017,09,03,10,32,22.60
2017,09,03,10,33,22.60
2017,09,03,10,34,22.60
2017,09,03,10,35,22.60
2017,09,03,10,36,22.60
2017,09,03,10,37,22.60
2017,09,03,10,38,22.60
2017,09,03,10,39,22.60
2017,09,03,10,40,22.50
2017,09,03,10,41,22.40
2017,09,03,10,42,22.40
2017,09,03,10,43,22.50
2017,09,03,10,44,22.50
2017,09,03,10,45,22.50
2017,09,03,10,46,22.50
2017,09,03,10,47,22.50
2017,09,03,10,48,22.50
2017,09,03,10,49,22.50
2017,09,03,10,50,22.50
2017,09,03,10,51,22.40
2017,09,03,10,52,22.40
2017,09,03,10,53,22.40
2017,09,03,10,54,22.40
2017,09,03,10,55,22.30
2017,09,03,10,56,22.30
2017,09,03,10,57,22.30
2017,09,03,10,58,22.30
2017,09,03,10,59,22.30
2017,09,03,11,00,22.30
2017,09,03,11,01,22.30
2017,09,03,11,02,22.40
2017,09,03,11,03,22.40
2017,09,03,11,04,22.40
2017,09,03,11,05,22.40
2017,09,03,11,06,22.40
2017,09,03,11,07,22.40
2017,09,03,11,08,22.40
2017,09,03,11,09,22.40
2017,09,03,11,10,22.30
2017,09,03,11,11,22.30
2017,09,03,11,12,22.30
2017,09,03,11,13,22.20
2017,09,03,11,14,22.20
2017,09,03,11,15,22.20
2017,09,03,11,16,22.20
2017,09,03,11,17,22.20
2017,09,03,11,18,22.20
2017,09,03,11,19,22.20
2017,09,03,11,20,22.30
2017,09,03,11,21,22.30
2017,09,03,11,22,22.30
2017,09,03,11,23,22.30
2017,09,03,11,24,22.30
2017,09,03,11,25,22.40
2017,09,03,11,26,22.40
2017,09,03,11,27,22.40
2017,09,03,11,28,22.60
2017,09,03,11,29,22.60
2017,09,03,11,30,22.60
2017,09,03,11,31,22.60
2017,09,03,11,32,22.60
2017,09,03,11,33,22.60
2017,09,03,11,34,22.60
2017,09,03,11,35,22.60
2017,09,03,11,36,22.70
2017,09,03,11,37,22.70
2017,09,03,11,38,22.80
2017,09,03,11,39,22.90
2017,09,03,11,40,23.00
2017,09,03,11,41,23.00
2017,09,03,11,42,23.10
2017,09,03,11,43,23.20
2017,09,03,11,44,23.30
2017,09,03,11,45,23.30
2017,09,03,11,46,23.30
2017,09,03,11,47,23.30
2017,09,03,11,48,23.30
2017,09,03,11,49,23.30
2017,09,03,11,50,23.30
2017,09,03,11,51,23.30
2017,09,03,11,52,23.30
2017,09,03,11,53,23.40
2017,09,03,11,54,23.40
2017,09,03,11,55,23.40
2017,09,03,11,56,23.40
2017,09,03,11,57,23.40
2017,09,03,11,58,23.40
2017,09,03,11,59,23.40
2017,09,03,12,00,23.40
2017,09,03,12,01,23.40
2017,09,03,12,02,23.30
2017,09,03,12,03,23.30
2017,09,03,12,04,23.30
2017,09,03,12,05,23.30
2017,09,03,12,06,23.30
2017,09,03,12,07,23.40
2017,09,03,12,08,23.40
2017,09,03,12,09,23.40
2017,09,03,12,10,23.40
2017,09,03,12,11,23.40
2017,09,03,12,12,23.40
2017,09,03,12,13,23.40
2017,09,03,12,14,23.40
2017,09,03,12,15,23.30
2017,09,03,12,16,23.30
2017,09,03,12,17,23.30
2017,09,03,12,18,23.30
2017,09,03,12,19,23.30
2017,09,03,12,20,23.30
2017,09,03,12,21,23.30
2017,09,03,12,22,23.40
2017,09,03,12,23,23.40
2017,09,03,12,24,23.50
2017,09,03,12,25,23.60
2017,09,03,12,26,23.60
2017,09,03,12,27,23.70
2017,09,03,12,28,23.70
2017,09,03,12,29,23.80
2017,09,03,12,30,23.80
2017,09,03,12,31,23.90
2017,09,03,12,32,23.90
2017,09,03,12,33,23.90
2017,09,03,12,34,24.00
2017,09,03,12,35,24.10
2017,09,03,12,36,24.20
2017,09,03,12,37,24.30
2017,09,03,12,38,24.30
2017,09,03,12,39,24.40
2017,09,03,12,40,24.50
2017,09,03,12,41,24.60
2017,09,03,12,42,24.70
2017,09,03,12,43,24.70
2017,09,03,12,44,24.70
2017,09,03,12,45,24.70
2017,09,03,12,46,24.70
2017,09,03,12,47,24.80
2017,09,03,12,48,24.80
2017,09,03,12,49,24.90
2017,09,03,12,50,24.90
2017,09,03,12,51,25.00
2017,09,03,12,52,25.10
2017,09,03,12,53,25.20
2017,09,03,12,54,25.20
2017,09,03,12,55,25.30
2017,09,03,12,56,25.30
2017,09,03,12,57,25.40
2017,09,03,12,58,25.50
2017,09,03,12,59,25.40
2017,09,03,13,00,25.40
2017,09,03,13,01,25.40
2017,09,03,13,02,25.40
2017,09,03,13,03,25.30
2017,09,03,13,04,25.30
2017,09,03,13,05,25.30
2017,09,03,13,06,25.30
2017,09,03,13,07,25.30
2017,09,03,13,08,25.30
2017,09,03,13,09,25.40
2017,09,03,13,10,25.50
2017,09,03,13,11,25.50
2017,09,03,13,12,25.50
2017,09,03,13,13,25.50
2017,09,03,13,14,25.50
2017,09,03,13,15,25.50
2017,09,03,13,16,25.60
2017,09,03,13,17,25.60
2017,09,03,13,18,25.60
2017,09,03,13,19,25.60
2017,09,03,13,20,25.60
2017,09,03,13,21,25.70
2017,09,03,13,22,25.70
2017,09,03,13,23,25.80
2017,09,03,13,24,25.80
2017,09,03,13,25,25.80
2017,09,03,13,26,25.80
2017,09,03,13,27,25.80
2017,09,03,13,28,25.90
2017,09,03,13,29,25.80
2017,09,03,13,30,25.90
2017,09,03,13,31,25.90
2017,09,03,13,32,26.00
2017,09,03,13,33,26.00
2017,09,03,13,34,26.00
2017,09,03,13,35,25.90
2017,09,03,13,36,25.90
2017,09,03,13,37,25.90
2017,09,03,13,38,25.90
2017,09,03,13,39,26.00
2017,09,03,13,40,26.00
2017,09,03,13,41,25.90
2017,09,03,13,42,25.90
2017,09,03,13,43,25.80
2017,09,03,13,44,25.80
2017,09,03,13,45,25.80
2017,09,03,13,46,25.80
2017,09,03,13,47,25.80
2017,09,03,13,48,25.80
2017,09,03,13,49,25.80
2017,09,03,13,50,25.80
2017,09,03,13,51,25.80
2017,09,03,13,52,25.80
2017,09,03,13,53,25.90
2017,09,03,13,54,25.90
2017,09,03,13,55,25.80
2017,09,03,13,56,25.80
2017,09,03,13,57,25.80
2017,09,03,13,58,25.90
2017,09,03,13,59,25.90
2017,09,03,14,00,25.90
2017,09,03,14,01,25.80
2017,09,03,14,02,25.70
2017,09,03,14,03,25.70
2017,09,03,14,04,25.70
2017,09,03,14,05,25.70
2017,09,03,14,06,25.80
2017,09,03,14,07,25.80
2017,09,03,14,08,25.80
2017,09,03,14,09,25.90
2017,09,03,14,10,25.90
2017,09,03,14,11,25.90
2017,09,03,14,12,25.90
2017,09,03,14,13,25.90
2017,09,03,14,14,25.80
2017,09,03,14,15,25.80
2017,09,03,14,16,25.70
2017,09,03,14,17,25.60
2017,09,03,14,18,25.60
2017,09,03,14,19,25.60
2017,09,03,14,20,25.60
2017,09,03,14,21,25.70
2017,09,03,14,22,25.80
2017,09,03,14,23,25.80
2017,09,03,14,24,26.00
2017,09,03,14,25,26.10
2017,09,03,14,26,26.20
2017,09,03,14,27,26.20
2017,09,03,14,28,26.30
2017,09,03,14,29,26.40
2017,09,03,14,30,26.40
2017,09,03,14,31,26.50
2017,09,03,14,32,26.60
2017,09,03,14,33,26.60
2017,09,03,14,34,26.70
2017,09,03,14,35,26.70
2017,09,03,14,36,26.80
2017,09,03,14,37,26.90
2017,09,03,14,38,27.00
2017,09,03,14,39,27.10
2017,09,03,14,40,27.10
2017,09,03,14,41,27.20
2017,09,03,14,42,27.20
2017,09,03,14,43,27.20
2017,09,03,14,44,27.20
2017,09,03,14,45,27.30
2017,09,03,14,46,27.30
2017,09,03,14,47,27.40
2017,09,03,14,48,27.40
2017,09,03,14,49,27.50
2017,09,03,14,50,27.50
2017,09,03,14,51,27.50
2017,09,03,14,52,27.60
2017,09,03,14,53,27.60
2017,09,03,14,54,27.60
2017,09,03,14,55,27.60
2017,09,03,14,56,27.60
2017,09,03,14,57,27.60
2017,09,03,14,58,27.70
2017,09,03,14,59,27.70
2017,09,03,15,00,27.80
2017,09,03,15,01,27.80
2017,09,03,15,02,27.80
2017,09,03,15,03,27.80
2017,09,03,15,04,27.80
2017,09,03,15,05,27.80
2017,09,03,15,06,27.80
2017,09,03,15,07,27.80
2017,09,03,15,08,27.80
2017,09,03,15,09,27.80
2017,09,03,15,10,27.70
2017,09,03,15,11,27.70
2017,09,03,15,12,27.70
2017,09,03,15,13,27.70
2017,09,03,15,14,27.60
2017,09,03,15,15,27.60
2017,09,03,15,16,27.50
2017,09,03,15,17,27.50
2017,09,03,15,18,27.40
2017,09,03,15,19,27.40
2017,09,03,15,20,27.40
2017,09,03,15,21,27.40
2017,09,03,15,22,27.40
2017,09,03,15,23,27.40
2017,09,03,15,24,27.40
2017,09,03,15,25,27.40
2017,09,03,15,26,27.40
2017,09,03,15,27,27.50
2017,09,03,15,28,27.50
2017,09,03,15,29,27.60
2017,09,03,15,30,27.60
2017,09,03,15,31,27.60
2017,09,03,15,32,27.60
2017,09,03,15,33,27.60
2017,09,03,15,34,27.70
2017,09,03,15,35,27.70
2017,09,03,15,36,27.70
2017,09,03,15,37,27.60
2017,09,03,15,38,27.60
2017,09,03,15,39,27.60
2017,09,03,15,40,27.60
2017,09,03,15,41,27.60
2017,09,03,15,42,27.60
2017,09,03,15,43,27.60
2017,09,03,15,44,27.70
2017,09,03,15,45,27.70
2017,09,03,15,46,27.70
2017,09,03,15,47,27.80
2017,09,03,15,48,27.80
2017,09,03,15,49,27.80
2017,09,03,15,50,27.80
2017,09,03,15,51,27.80
2017,09,03,15,52,27.90
2017,09,03,15,53,27.90
2017,09,03,15,54,27.90
2017,09,03,15,55,27.90
2017,09,03,15,56,27.90
2017,09,03,15,57,27.90
2017,09,03,15,58,27.90
2017,09,03,15,59,27.90
2017,09,03,16,00,27.90
2017,09,03,16,01,27.90
2017,09,03,16,02,27.90
2017,09,03,16,03,27.90
2017,09,03,16,04,27.90
2017,09,03,16,05,27.90
2017,09,03,16,06,28.00
2017,09,03,16,07,28.00
2017,09,03,16,08,28.00
2017,09,03,16,09,28.00
2017,09,03,16,10,28.10
2017,09,03,16,11,28.10
2017,09,03,16,12,28.10
2017,09,03,16,13,28.10
2017,09,03,16,14,28.10
2017,09,03,16,15,28.20
2017,09,03,16,16,28.20
2017,09,03,16,17,28.20
2017,09,03,16,18,28.30
2017,09,03,16,19,28.30
2017,09,03,16,20,28.40
2017,09,03,16,21,28.40
2017,09,03,16,22,28.50
2017,09,03,16,23,28.50
2017,09,03,16,24,28.60
2017,09,03,16,25,28.60
2017,09,03,16,26,28.70
2017,09,03,16,27,28.70
2017,09,03,16,28,28.70
2017,09,03,16,29,28.70
2017,09,03,16,30,28.70
2017,09,03,16,31,28.70
2017,09,03,16,32,28.70
2017,09,03,16,33,28.70
2017,09,03,16,34,28.70
2017,09,03,16,35,28.70
2017,09,03,16,36,28.70
2017,09,03,16,37,28.70
2017,09,03,16,38,28.70
2017,09,03,16,39,28.60
2017,09,03,16,40,28.60
2017,09,03,16,41,28.60
2017,09,03,16,42,28.50
2017,09,03,16,43,28.50
2017,09,03,16,44,28.50
2017,09,03,16,45,28.50
2017,09,03,16,46,28.40
2017,09,03,16,47,28.40
2017,09,03,16,48,28.40
2017,09,03,16,49,28.30
2017,09,03,16,50,28.30
2017,09,03,16,51,28.30
2017,09,03,16,52,28.20
2017,09,03,16,53,28.20
2017,09,03,16,54,28.10
2017,09,03,16,55,28.10
2017,09,03,16,56,28.00
2017,09,03,16,57,28.00
2017,09,03,16,58,28.00
2017,09,03,16,59,28.00
2017,09,03,17,00,28.00
2017,09,03,17,01,28.00
2017,09,03,17,02,28.00
2017,09,03,17,03,28.00
2017,09,03,17,04,28.10
2017,09,03,17,05,28.10
2017,09,03,17,06,28.10
2017,09,03,17,07,28.10
2017,09,03,17,08,28.10
2017,09,03,17,09,28.10
2017,09,03,17,10,28.10
2017,09,03,17,11,28.00
2017,09,03,17,12,28.00
2017,09,03,17,13,28.00
2017,09,03,17,14,27.90
2017,09,03,17,15,27.90
2017,09,03,17,16,27.90
2017,09,03,17,17,27.80
2017,09,03,17,18,27.80
2017,09,03,17,19,27.70